Time,TemperatureF,DewpointF,PressureIn,WindDirection,WindDirectionDegrees,WindSpeedMPH,WindSpeedGustMPH,Humidity,HourlyPrecipIn,Conditions,Clouds,dailyrainin,SoftwareType,DateUTC
2013-04-28 00:01:00,45.7,35.4,30.32,SSW,211,0.0,1.0,67,0.00,,,0.00,meteohub,2013-04-28 04:01:00,
2013-04-28 00:06:00,45.3,35.8,30.32,SSW,211,0.0,1.0,69,0.00,,,0.00,meteohub,2013-04-28 04:06:00,
2013-04-28 00:11:00,45.3,36.9,30.32,SSW,211,0.0,1.0,72,0.00,,,0.00,meteohub,2013-04-28 04:11:00,
2013-04-28 00:16:00,45.1,36.7,30.32,SSW,211,0.0,1.0,72,0.00,,,0.00,meteohub,2013-04-28 04:16:00,
2013-04-28 00:21:00,45.1,36.0,30.32,SSW,211,1.0,1.0,70,0.00,,,0.00,meteohub,2013-04-28 04:21:00,
2013-04-28 00:26:00,45.1,35.2,30.32,SSW,212,0.0,1.0,68,0.00,,,0.00,meteohub,2013-04-28 04:26:00,
2013-04-28 00:31:00,45.3,35.4,30.32,SSW,212,0.0,1.0,68,0.00,,,0.00,meteohub,2013-04-28 04:31:00,
2013-04-28 00:36:00,45.5,36.0,30.32,SSW,212,0.0,1.0,69,0.00,,,0.00,meteohub,2013-04-28 04:36:00,
2013-04-28 00:41:00,45.5,36.7,30.32,SSW,212,0.0,1.0,71,0.00,,,0.00,meteohub,2013-04-28 04:41:00,
2013-04-28 00:46:00,45.3,36.1,30.31,SSW,212,0.0,0.0,70,0.00,,,0.00,meteohub,2013-04-28 04:46:00,
2013-04-28 00:51:00,45.3,35.8,30.31,SSW,212,0.0,0.0,69,0.00,,,0.00,meteohub,2013-04-28 04:51:00,
2013-04-28 00:57:00,45.3,35.8,30.31,SSW,212,1.0,0.0,69,0.00,,,0.00,meteohub,2013-04-28 04:57:00,
2013-04-28 01:02:00,45.3,35.4,30.31,SSW,212,1.0,1.0,68,0.00,,,0.00,meteohub,2013-04-28 05:02:00,
2013-04-28 01:07:00,45.3,36.1,30.31,SSW,212,0.0,1.0,70,0.00,,,0.00,meteohub,2013-04-28 05:07:00,
2013-04-28 01:12:00,45.3,36.5,30.31,SSW,212,1.0,1.0,71,0.00,,,0.00,meteohub,2013-04-28 05:12:00,
2013-04-28 01:17:00,45.3,36.1,30.31,SSW,212,1.0,1.0,70,0.00,,,0.00,meteohub,2013-04-28 05:17:00,
2013-04-28 01:22:00,45.5,36.7,30.31,West,277,0.0,2.0,71,0.00,,,0.00,meteohub,2013-04-28 05:22:00,
2013-04-28 01:27:00,45.5,37.0,30.31,West,277,0.0,2.0,72,0.00,,,0.00,meteohub,2013-04-28 05:27:00,
2013-04-28 01:32:00,45.5,37.4,30.31,West,277,0.0,2.0,73,0.00,,,0.00,meteohub,2013-04-28 05:32:00,
2013-04-28 01:37:00,45.7,36.9,30.30,West,277,0.0,1.0,71,0.00,,,0.00,meteohub,2013-04-28 05:37:00,
2013-04-28 01:42:00,45.7,37.2,30.30,West,277,0.0,1.0,72,0.00,,,0.00,meteohub,2013-04-28 05:42:00,
2013-04-28 01:47:00,45.7,37.6,30.31,West,277,1.0,1.0,73,0.00,,,0.00,meteohub,2013-04-28 05:47:00,
2013-04-28 01:52:00,45.7,37.6,30.30,West,277,0.0,2.0,73,0.00,,,0.00,meteohub,2013-04-28 05:52:00,
2013-04-28 01:57:00,45.5,37.4,30.30,West,277,0.0,2.0,73,0.00,,,0.00,meteohub,2013-04-28 05:57:00,
2013-04-28 02:02:00,45.1,37.0,30.30,West,277,0.0,2.0,73,0.00,,,0.00,meteohub,2013-04-28 06:02:00,
2013-04-28 02:07:00,45.1,37.4,30.30,West,277,0.0,2.0,74,0.00,,,0.00,meteohub,2013-04-28 06:07:00,
2013-04-28 02:12:00,45.1,37.4,30.30,West,277,0.0,1.0,74,0.00,,,0.00,meteohub,2013-04-28 06:12:00,
2013-04-28 02:17:00,45.0,37.2,30.30,West,277,1.0,1.0,74,0.00,,,0.00,meteohub,2013-04-28 06:17:00,
2013-04-28 02:22:00,45.0,37.6,30.30,West,277,0.0,2.0,75,0.00,,,0.00,meteohub,2013-04-28 06:22:00,
2013-04-28 02:27:00,44.8,37.4,30.30,West,277,0.0,2.0,75,0.00,,,0.00,meteohub,2013-04-28 06:27:00,
2013-04-28 02:32:00,44.8,37.9,30.30,West,277,0.0,2.0,77,0.00,,,0.00,meteohub,2013-04-28 06:32:00,
2013-04-28 02:37:00,44.6,37.6,30.30,West,277,0.0,1.0,76,0.00,,,0.00,meteohub,2013-04-28 06:37:00,
2013-04-28 02:42:00,44.8,37.8,30.29,West,277,0.0,1.0,76,0.00,,,0.00,meteohub,2013-04-28 06:42:00,
2013-04-28 02:47:00,44.8,37.9,30.30,West,263,0.0,1.0,77,0.00,,,0.00,meteohub,2013-04-28 06:47:00,
2013-04-28 02:52:00,44.4,37.6,30.29,West,263,0.0,1.0,77,0.00,,,0.00,meteohub,2013-04-28 06:52:00,
2013-04-28 02:57:00,44.4,37.9,30.29,West,263,0.0,1.0,78,0.00,,,0.00,meteohub,2013-04-28 06:57:00,
2013-04-28 03:02:00,44.4,37.9,30.29,West,263,0.0,1.0,78,0.00,,,0.00,meteohub,2013-04-28 07:02:00,
2013-04-28 03:07:00,44.4,37.9,30.29,West,263,0.0,1.0,78,0.00,,,0.00,meteohub,2013-04-28 07:07:00,
2013-04-28 03:12:00,44.4,37.9,30.29,West,263,0.0,1.0,78,0.00,,,0.00,meteohub,2013-04-28 07:12:00,
2013-04-28 03:17:00,44.2,38.1,30.29,West,263,1.0,1.0,79,0.00,,,0.00,meteohub,2013-04-28 07:17:00,
2013-04-28 03:22:00,44.2,38.1,30.29,West,263,1.0,2.0,79,0.00,,,0.00,meteohub,2013-04-28 07:22:00,
2013-04-28 03:27:00,44.1,38.3,30.29,West,263,1.0,2.0,80,0.00,,,0.00,meteohub,2013-04-28 07:27:00,
2013-04-28 03:32:00,43.9,38.5,30.29,West,263,2.0,2.0,81,0.00,,,0.00,meteohub,2013-04-28 07:32:00,
2013-04-28 03:37:00,43.9,38.5,30.29,West,263,0.0,3.0,81,0.00,,,0.00,meteohub,2013-04-28 07:37:00,
2013-04-28 03:42:00,44.1,38.8,30.29,West,263,0.0,3.0,82,0.00,,,0.00,meteohub,2013-04-28 07:42:00,
2013-04-28 03:47:00,43.9,38.5,30.29,West,263,1.0,3.0,81,0.00,,,0.00,meteohub,2013-04-28 07:47:00,
2013-04-28 03:52:00,43.9,38.7,30.29,West,263,1.0,2.0,82,0.00,,,0.00,meteohub,2013-04-28 07:52:00,
2013-04-28 03:57:00,43.9,38.5,30.29,West,263,0.0,2.0,81,0.00,,,0.00,meteohub,2013-04-28 07:57:00,
2013-04-28 04:02:00,43.9,38.7,30.29,West,263,0.0,2.0,82,0.00,,,0.00,meteohub,2013-04-28 08:02:00,
2013-04-28 04:07:00,44.2,39.0,30.29,West,263,0.0,2.0,82,0.00,,,0.00,meteohub,2013-04-28 08:07:00,
2013-04-28 04:12:00,44.2,38.8,30.28,West,263,0.0,2.0,81,0.00,,,0.00,meteohub,2013-04-28 08:12:00,
2013-04-28 04:17:00,44.1,38.8,30.29,West,263,0.0,2.0,82,0.00,,,0.00,meteohub,2013-04-28 08:17:00,
2013-04-28 04:22:00,43.9,38.7,30.28,West,263,0.0,2.0,82,0.00,,,0.00,meteohub,2013-04-28 08:22:00,
2013-04-28 04:27:00,43.9,38.7,30.28,West,263,1.0,2.0,82,0.00,,,0.00,meteohub,2013-04-28 08:27:00,
2013-04-28 04:32:00,43.5,38.5,30.28,West,263,1.0,2.0,82,0.00,,,0.00,meteohub,2013-04-28 08:32:00,
2013-04-28 04:37:00,43.5,38.5,30.28,West,263,0.0,1.0,82,0.00,,,0.00,meteohub,2013-04-28 08:37:00,
2013-04-28 04:42:00,43.3,38.3,30.28,West,263,0.0,1.0,82,0.00,,,0.00,meteohub,2013-04-28 08:42:00,
2013-04-28 04:47:00,43.3,38.5,30.28,West,262,0.0,1.0,83,0.00,,,0.00,meteohub,2013-04-28 08:47:00,
2013-04-28 04:52:00,43.2,38.3,30.28,West,262,0.0,1.0,83,0.00,,,0.00,meteohub,2013-04-28 08:52:00,
2013-04-28 04:57:00,43.0,38.5,30.27,West,262,0.0,1.0,84,0.00,,,0.00,meteohub,2013-04-28 08:57:00,
2013-04-28 05:02:00,42.8,38.3,30.27,West,262,0.0,1.0,84,0.00,,,0.00,meteohub,2013-04-28 09:02:00,
2013-04-28 05:07:00,42.8,38.3,30.27,West,262,0.0,1.0,84,0.00,,,0.00,meteohub,2013-04-28 09:07:00,
2013-04-28 05:12:00,42.6,38.5,30.27,West,262,0.0,1.0,85,0.00,,,0.00,meteohub,2013-04-28 09:12:00,
2013-04-28 05:17:00,42.6,38.5,30.27,West,262,0.0,1.0,85,0.00,,,0.00,meteohub,2013-04-28 09:17:00,
2013-04-28 05:22:00,42.4,38.3,30.27,North,0,0.0,1.0,85,0.00,,,0.00,meteohub,2013-04-28 09:22:00,
2013-04-28 05:27:00,42.4,38.3,30.27,West,262,0.0,1.0,85,0.00,,,0.00,meteohub,2013-04-28 09:27:00,
2013-04-28 05:32:00,42.3,38.1,30.27,West,262,0.0,1.0,85,0.00,,,0.00,meteohub,2013-04-28 09:32:00,
2013-04-28 05:37:00,42.1,37.9,30.27,West,263,0.0,1.0,85,0.00,,,0.00,meteohub,2013-04-28 09:37:00,
2013-04-28 05:42:00,41.7,37.8,30.27,West,274,0.0,1.0,86,0.00,,,0.00,meteohub,2013-04-28 09:42:00,
2013-04-28 05:47:00,41.5,37.6,30.27,West,274,0.0,1.0,86,0.00,,,0.00,meteohub,2013-04-28 09:47:00,
2013-04-28 05:52:00,41.5,37.9,30.27,West,274,0.0,1.0,87,0.00,,,0.00,meteohub,2013-04-28 09:52:00,
2013-04-28 05:57:00,41.4,37.8,30.28,West,276,0.0,0.0,87,0.00,,,0.00,meteohub,2013-04-28 09:57:00,
2013-04-28 06:02:00,41.4,37.8,30.27,West,262,0.0,0.0,87,0.00,,,0.00,meteohub,2013-04-28 10:02:00,
2013-04-28 06:07:00,41.2,37.9,30.27,West,262,0.0,0.0,88,0.00,,,0.00,meteohub,2013-04-28 10:07:00,
2013-04-28 06:12:00,41.2,37.9,30.27,West,262,0.0,1.0,88,0.00,,,0.00,meteohub,2013-04-28 10:12:00,
2013-04-28 06:17:00,41.0,37.8,30.28,West,262,0.0,1.0,88,0.00,,,0.00,meteohub,2013-04-28 10:17:00,
2013-04-28 06:22:00,40.8,37.6,30.28,West,262,0.0,1.0,88,0.00,,,0.00,meteohub,2013-04-28 10:22:00,
2013-04-28 06:27:00,40.8,37.8,30.28,West,262,0.0,1.0,89,0.00,,,0.00,meteohub,2013-04-28 10:27:00,
2013-04-28 06:32:00,40.8,38.1,30.28,West,262,0.0,1.0,90,0.00,,,0.00,meteohub,2013-04-28 10:32:00,
2013-04-28 06:37:00,40.8,38.1,30.28,West,262,0.0,1.0,90,0.00,,,0.00,meteohub,2013-04-28 10:37:00,
2013-04-28 06:42:00,41.0,38.3,30.28,West,262,0.0,1.0,90,0.00,,,0.00,meteohub,2013-04-28 10:42:00,
2013-04-28 06:47:00,41.2,38.5,30.28,West,262,1.0,1.0,90,0.00,,,0.00,meteohub,2013-04-28 10:47:00,
2013-04-28 06:52:00,41.2,38.8,30.28,West,262,1.0,2.0,91,0.00,,,0.00,meteohub,2013-04-28 10:52:00,
2013-04-28 06:57:00,41.4,39.0,30.29,West,262,0.0,2.0,91,0.00,,,0.00,meteohub,2013-04-28 10:57:00,
2013-04-28 07:02:00,41.5,39.2,30.29,West,262,0.0,2.0,91,0.00,,,0.00,meteohub,2013-04-28 11:02:00,
2013-04-28 07:07:00,41.7,39.2,30.29,West,262,0.0,1.0,91,0.00,,,0.00,meteohub,2013-04-28 11:07:00,
2013-04-28 07:12:00,41.9,39.4,30.29,West,262,0.0,0.0,91,0.00,,,0.00,meteohub,2013-04-28 11:12:00,
2013-04-28 07:17:00,42.1,39.6,30.29,West,262,0.0,0.0,91,0.00,,,0.00,meteohub,2013-04-28 11:17:00,
2013-04-28 07:22:00,42.4,40.3,30.29,West,262,0.0,0.0,92,0.00,,,0.00,meteohub,2013-04-28 11:22:00,
2013-04-28 07:27:00,42.6,40.5,30.30,West,262,0.0,0.0,92,0.00,,,0.00,meteohub,2013-04-28 11:27:00,
2013-04-28 07:32:00,43.2,41.0,30.30,West,262,0.0,0.0,92,0.00,,,0.00,meteohub,2013-04-28 11:32:00,
2013-04-28 07:37:00,43.5,41.0,30.30,West,262,0.0,0.0,91,0.00,,,0.00,meteohub,2013-04-28 11:37:00,
2013-04-28 07:42:00,44.2,41.7,30.31,West,262,0.0,1.0,91,0.00,,,0.00,meteohub,2013-04-28 11:42:00,
2013-04-28 07:47:00,45.0,42.3,30.31,West,262,1.0,1.0,90,0.00,,,0.00,meteohub,2013-04-28 11:47:00,
2013-04-28 07:52:00,45.7,42.1,30.31,West,262,0.0,1.0,87,0.00,,,0.00,meteohub,2013-04-28 11:52:00,
2013-04-28 07:57:00,46.9,42.4,30.31,West,262,0.0,2.0,84,0.00,,,0.00,meteohub,2013-04-28 11:57:00,
2013-04-28 08:02:00,48.6,42.3,30.31,West,262,0.0,2.0,79,0.00,,,0.00,meteohub,2013-04-28 12:02:00,
2013-04-28 08:07:00,50.2,42.6,30.31,West,261,1.0,2.0,75,0.00,,,0.00,meteohub,2013-04-28 12:07:00,
2013-04-28 08:12:00,51.4,42.4,30.31,WSW,254,1.0,2.0,71,0.00,,,0.00,meteohub,2013-04-28 12:12:00,
2013-04-28 08:17:00,52.3,41.0,30.31,SSW,207,2.0,3.0,65,0.00,,,0.00,meteohub,2013-04-28 12:17:00,
2013-04-28 08:22:00,53.8,39.4,30.31,SSW,192,3.0,5.0,58,0.00,,,0.00,meteohub,2013-04-28 12:22:00,
2013-04-28 08:27:00,54.5,38.7,30.31,SW,232,4.0,5.0,55,0.00,,,0.00,meteohub,2013-04-28 12:27:00,
2013-04-28 08:32:00,55.0,39.2,30.31,SW,232,2.0,5.0,55,0.00,,,0.00,meteohub,2013-04-28 12:32:00,
2013-04-28 08:37:00,55.6,38.3,30.31,SSW,205,2.0,5.0,52,0.00,,,0.00,meteohub,2013-04-28 12:37:00,
2013-04-28 08:42:00,56.1,38.3,30.30,SSW,201,2.0,5.0,51,0.00,,,0.00,meteohub,2013-04-28 12:42:00,
2013-04-28 08:47:00,56.7,39.2,30.30,SW,232,0.0,5.0,52,0.00,,,0.00,meteohub,2013-04-28 12:47:00,
2013-04-28 08:52:00,57.0,38.5,30.30,SW,217,1.0,5.0,50,0.00,,,0.00,meteohub,2013-04-28 12:52:00,
2013-04-28 08:57:00,57.6,39.6,30.30,WSW,238,1.0,4.0,51,0.00,,,0.00,meteohub,2013-04-28 12:57:00,
2013-04-28 09:02:00,58.3,39.7,30.30,SW,236,2.0,4.0,50,0.00,,,0.00,meteohub,2013-04-28 13:02:00,
2013-04-28 09:07:00,58.5,39.9,30.30,SSW,204,3.0,4.0,50,0.00,,,0.00,meteohub,2013-04-28 13:07:00,
2013-04-28 09:12:00,58.8,41.2,30.30,South,173,2.0,4.0,52,0.00,,,0.00,meteohub,2013-04-28 13:12:00,
2013-04-28 09:17:00,59.4,38.7,30.30,SSW,194,4.0,4.0,46,0.00,,,0.00,meteohub,2013-04-28 13:17:00,
2013-04-28 09:22:00,59.5,39.4,30.30,South,171,3.0,5.0,47,0.00,,,0.00,meteohub,2013-04-28 13:22:00,
2013-04-28 09:27:00,59.5,39.4,30.30,South,174,4.0,6.0,47,0.00,,,0.00,meteohub,2013-04-28 13:27:00,
2013-04-28 09:32:00,59.7,38.8,30.30,SW,227,4.0,6.0,46,0.00,,,0.00,meteohub,2013-04-28 13:32:00,
2013-04-28 09:37:00,59.7,39.9,30.29,SW,232,3.0,6.0,48,0.00,,,0.00,meteohub,2013-04-28 13:37:00,
2013-04-28 09:42:00,60.1,40.3,30.29,South,182,3.0,6.0,48,0.00,,,0.00,meteohub,2013-04-28 13:42:00,
2013-04-28 09:47:00,60.3,38.8,30.30,South,188,3.0,5.0,45,0.00,,,0.00,meteohub,2013-04-28 13:47:00,
2013-04-28 09:52:00,60.6,39.2,30.29,South,187,3.0,5.0,45,0.00,,,0.00,meteohub,2013-04-28 13:52:00,
2013-04-28 09:57:00,61.0,41.2,30.29,SSE,150,1.0,5.0,48,0.00,,,0.00,meteohub,2013-04-28 13:57:00,
2013-04-28 10:02:00,61.7,40.6,30.29,South,178,2.0,5.0,46,0.00,,,0.00,meteohub,2013-04-28 14:02:00,
2013-04-28 10:07:00,62.1,40.5,30.29,SSE,164,2.0,5.0,45,0.00,,,0.00,meteohub,2013-04-28 14:07:00,
2013-04-28 10:12:00,62.2,41.2,30.29,South,189,2.0,4.0,46,0.00,,,0.00,meteohub,2013-04-28 14:12:00,
2013-04-28 10:17:00,62.1,40.5,30.29,SW,215,4.0,5.0,45,0.00,,,0.00,meteohub,2013-04-28 14:17:00,
2013-04-28 10:22:00,61.5,39.4,30.30,SSE,154,2.0,6.0,44,0.00,,,0.00,meteohub,2013-04-28 14:22:00,
2013-04-28 10:27:00,62.1,40.5,30.30,SSE,160,1.0,6.0,45,0.00,,,0.00,meteohub,2013-04-28 14:27:00,
2013-04-28 10:32:00,63.1,42.1,30.30,SSW,213,2.0,6.0,46,0.00,,,0.00,meteohub,2013-04-28 14:32:00,
2013-04-28 10:37:00,63.7,41.4,30.30,SSW,193,3.0,5.0,44,0.00,,,0.00,meteohub,2013-04-28 14:37:00,
2013-04-28 10:42:00,63.9,42.1,30.29,SW,229,3.0,6.0,45,0.00,,,0.00,meteohub,2013-04-28 14:42:00,
2013-04-28 10:47:00,64.0,39.2,30.30,SSW,196,5.0,6.0,40,0.00,,,0.00,meteohub,2013-04-28 14:47:00,
2013-04-28 10:52:00,63.9,40.3,30.30,SSW,196,4.0,6.0,42,0.00,,,0.00,meteohub,2013-04-28 14:52:00,
2013-04-28 10:57:00,63.9,41.0,30.30,SSE,166,1.0,6.0,43,0.00,,,0.00,meteohub,2013-04-28 14:57:00,
2013-04-28 11:03:00,64.2,40.6,30.30,SW,215,2.0,6.0,42,0.00,,,0.00,meteohub,2013-04-28 15:03:00,
2013-04-28 11:07:00,64.8,41.2,30.30,SSW,198,6.0,6.0,42,0.00,,,0.00,meteohub,2013-04-28 15:07:00,
2013-04-28 11:13:00,64.6,40.3,30.30,SSE,163,3.0,7.0,41,0.00,,,0.00,meteohub,2013-04-28 15:13:00,
2013-04-28 11:18:00,64.6,39.0,30.30,SW,231,5.0,7.0,39,0.00,,,0.00,meteohub,2013-04-28 15:18:00,
2013-04-28 11:23:00,65.1,40.3,30.30,SSW,207,5.0,7.0,40,0.00,,,0.00,meteohub,2013-04-28 15:23:00,
2013-04-28 11:28:00,64.9,38.7,30.30,SSW,208,6.0,7.0,38,0.00,,,0.00,meteohub,2013-04-28 15:28:00,
2013-04-28 11:33:00,64.2,38.7,30.30,South,180,3.0,8.0,39,0.00,,,0.00,meteohub,2013-04-28 15:33:00,
2013-04-28 11:38:00,65.1,38.1,30.29,SSW,196,3.0,8.0,37,0.00,,,0.00,meteohub,2013-04-28 15:38:00,
2013-04-28 11:43:00,65.1,38.8,30.29,SW,220,3.0,8.0,38,0.00,,,0.00,meteohub,2013-04-28 15:43:00,
2013-04-28 11:48:00,65.3,40.3,30.29,SE,138,7.0,8.0,40,0.00,,,0.00,meteohub,2013-04-28 15:48:00,
2013-04-28 11:53:00,65.8,38.1,30.29,WSW,244,3.0,8.0,36,0.00,,,0.00,meteohub,2013-04-28 15:53:00,
2013-04-28 11:58:00,65.1,37.6,30.29,West,261,4.0,9.0,36,0.00,,,0.00,meteohub,2013-04-28 15:58:00,
2013-04-28 12:03:00,65.8,38.1,30.29,SSW,200,4.0,9.0,36,0.00,,,0.00,meteohub,2013-04-28 16:03:00,
2013-04-28 12:08:00,65.8,37.4,30.30,South,178,5.0,9.0,35,0.00,,,0.00,meteohub,2013-04-28 16:08:00,
2013-04-28 12:13:00,65.7,37.9,30.29,South,172,4.0,9.0,36,0.00,,,0.00,meteohub,2013-04-28 16:13:00,
2013-04-28 12:18:00,65.7,39.4,30.29,South,170,2.0,8.0,38,0.00,,,0.00,meteohub,2013-04-28 16:18:00,
2013-04-28 12:23:00,65.7,37.9,30.29,SSE,167,5.0,8.0,36,0.00,,,0.00,meteohub,2013-04-28 16:23:00,
2013-04-28 12:28:00,65.8,37.4,30.28,South,180,3.0,7.0,35,0.00,,,0.00,meteohub,2013-04-28 16:28:00,
2013-04-28 12:33:00,65.8,38.1,30.28,South,180,3.0,8.0,36,0.00,,,0.00,meteohub,2013-04-28 16:33:00,
2013-04-28 12:38:00,66.0,39.0,30.28,South,183,2.0,8.0,37,0.00,,,0.00,meteohub,2013-04-28 16:38:00,
2013-04-28 12:43:00,67.1,40.6,30.28,SE,132,2.0,8.0,38,0.00,,,0.00,meteohub,2013-04-28 16:43:00,
2013-04-28 12:48:00,67.5,38.8,30.27,SSE,149,2.0,7.0,35,0.00,,,0.00,meteohub,2013-04-28 16:48:00,
2013-04-28 12:53:00,66.9,38.3,30.27,SSE,148,6.0,8.0,35,0.00,,,0.00,meteohub,2013-04-28 16:53:00,
2013-04-28 12:58:00,66.0,36.9,30.27,South,169,7.0,8.0,34,0.00,,,0.00,meteohub,2013-04-28 16:58:00,
2013-04-28 13:03:00,65.7,38.7,30.27,South,189,1.0,10.0,37,0.00,,,0.00,meteohub,2013-04-28 17:03:00,
2013-04-28 13:08:00,66.7,39.6,30.26,SE,134,3.0,10.0,37,0.00,,,0.00,meteohub,2013-04-28 17:08:00,
2013-04-28 13:13:00,66.7,36.7,30.26,SE,138,6.0,10.0,33,0.00,,,0.00,meteohub,2013-04-28 17:13:00,
2013-04-28 13:18:00,66.7,39.0,30.26,SSE,160,4.0,9.0,36,0.00,,,0.00,meteohub,2013-04-28 17:18:00,
2013-04-28 13:23:00,66.6,38.1,30.26,South,191,7.0,9.0,35,0.00,,,0.00,meteohub,2013-04-28 17:23:00,
2013-04-28 13:28:00,66.7,36.7,30.26,South,179,3.0,10.0,33,0.00,,,0.00,meteohub,2013-04-28 17:28:00,
2013-04-28 13:33:00,66.6,39.6,30.26,South,175,2.0,10.0,37,0.00,,,0.00,meteohub,2013-04-28 17:33:00,
2013-04-28 13:38:00,66.4,37.9,30.26,SSE,159,3.0,10.0,35,0.00,,,0.00,meteohub,2013-04-28 17:38:00,
2013-04-28 13:43:00,66.2,37.8,30.26,South,191,5.0,8.0,35,0.00,,,0.00,meteohub,2013-04-28 17:43:00,
2013-04-28 13:48:00,65.8,37.4,30.26,NNE,23,1.0,8.0,35,0.00,,,0.00,meteohub,2013-04-28 17:48:00,
2013-04-28 13:53:00,65.8,37.4,30.26,SSE,166,3.0,9.0,35,0.00,,,0.00,meteohub,2013-04-28 17:53:00,
2013-04-28 13:58:00,66.4,38.7,30.26,SE,130,4.0,9.0,36,0.00,,,0.00,meteohub,2013-04-28 17:58:00,
2013-04-28 14:03:00,66.7,41.0,30.25,South,188,7.0,9.0,39,0.00,,,0.00,meteohub,2013-04-28 18:03:00,
2013-04-28 14:08:00,66.6,38.1,30.25,South,184,5.0,7.0,35,0.00,,,0.00,meteohub,2013-04-28 18:08:00,
2013-04-28 14:13:00,66.6,39.6,30.25,SSE,161,3.0,8.0,37,0.00,,,0.00,meteohub,2013-04-28 18:13:00,
2013-04-28 14:19:00,66.7,38.3,30.25,South,175,5.0,9.0,35,0.00,,,0.00,meteohub,2013-04-28 18:19:00,
2013-04-28 14:24:00,66.6,39.6,30.25,SE,134,4.0,9.0,37,0.00,,,0.00,meteohub,2013-04-28 18:24:00,
2013-04-28 14:29:00,66.6,38.1,30.25,SSE,161,5.0,9.0,35,0.00,,,0.00,meteohub,2013-04-28 18:29:00,
2013-04-28 14:34:00,66.4,39.9,30.25,South,186,4.0,9.0,38,0.00,,,0.00,meteohub,2013-04-28 18:34:00,
2013-04-28 14:39:00,66.7,40.3,30.25,South,178,5.0,9.0,38,0.00,,,0.00,meteohub,2013-04-28 18:39:00,
2013-04-28 14:44:00,66.6,38.8,30.25,SSW,192,1.0,9.0,36,0.00,,,0.00,meteohub,2013-04-28 18:44:00,
2013-04-28 14:49:00,66.6,39.6,30.24,South,181,2.0,7.0,37,0.00,,,0.00,meteohub,2013-04-28 18:49:00,
2013-04-28 14:54:00,66.6,39.6,30.25,South,178,3.0,7.0,37,0.00,,,0.00,meteohub,2013-04-28 18:54:00,
2013-04-28 14:59:00,66.4,39.9,30.25,SSW,201,3.0,6.0,38,0.00,,,0.00,meteohub,2013-04-28 18:59:00,
2013-04-28 15:04:00,65.8,38.1,30.24,South,191,2.0,7.0,36,0.00,,,0.00,meteohub,2013-04-28 19:04:00,
2013-04-28 15:09:00,65.8,40.1,30.24,ESE,121,5.0,7.0,39,0.00,,,0.00,meteohub,2013-04-28 19:09:00,
2013-04-28 15:14:00,65.8,40.8,30.23,South,186,2.0,7.0,40,0.00,,,0.00,meteohub,2013-04-28 19:14:00,
2013-04-28 15:19:00,65.8,39.6,30.23,South,183,2.0,7.0,38,0.00,,,0.00,meteohub,2013-04-28 19:19:00,
2013-04-28 15:24:00,65.8,40.1,30.23,South,170,2.0,7.0,39,0.00,,,0.00,meteohub,2013-04-28 19:24:00,
2013-04-28 15:29:00,65.8,41.5,30.23,SE,139,3.0,5.0,41,0.00,,,0.00,meteohub,2013-04-28 19:29:00,
2013-04-28 15:34:00,65.5,39.9,30.23,South,169,5.0,6.0,39,0.00,,,0.00,meteohub,2013-04-28 19:34:00,
2013-04-28 15:39:00,64.9,39.4,30.23,SE,136,2.0,9.0,39,0.00,,,0.00,meteohub,2013-04-28 19:39:00,
2013-04-28 15:44:00,64.8,37.9,30.23,South,169,6.0,10.0,37,0.00,,,0.00,meteohub,2013-04-28 19:44:00,
2013-04-28 15:49:00,64.4,38.8,30.23,East,95,2.0,10.0,39,0.00,,,0.00,meteohub,2013-04-28 19:49:00,
2013-04-28 15:54:00,64.6,38.5,30.23,SE,142,7.0,10.0,38,0.00,,,0.00,meteohub,2013-04-28 19:54:00,
2013-04-28 15:59:00,64.6,37.8,30.23,SSE,161,2.0,10.0,37,0.00,,,0.00,meteohub,2013-04-28 19:59:00,
2013-04-28 16:04:00,64.4,37.6,30.23,SSE,151,5.0,10.0,37,0.00,,,0.00,meteohub,2013-04-28 20:04:00,
2013-04-28 16:09:00,64.0,37.2,30.23,SE,144,3.0,11.0,37,0.00,,,0.00,meteohub,2013-04-28 20:09:00,
2013-04-28 16:14:00,64.0,37.2,30.23,SSE,150,5.0,11.0,37,0.00,,,0.00,meteohub,2013-04-28 20:14:00,
2013-04-28 16:19:00,63.9,37.0,30.23,SSE,149,2.0,11.0,37,0.00,,,0.00,meteohub,2013-04-28 20:19:00,
2013-04-28 16:24:00,63.7,38.3,30.23,SSE,156,4.0,6.0,39,0.00,,,0.00,meteohub,2013-04-28 20:24:00,
2013-04-28 16:29:00,63.3,37.2,30.23,South,179,3.0,8.0,38,0.00,,,0.00,meteohub,2013-04-28 20:29:00,
2013-04-28 16:34:00,63.1,37.0,30.22,SSE,158,2.0,8.0,38,0.00,,,0.00,meteohub,2013-04-28 20:34:00,
2013-04-28 16:39:00,63.1,37.0,30.22,South,182,3.0,8.0,38,0.00,,,0.00,meteohub,2013-04-28 20:39:00,
2013-04-28 16:44:00,63.1,35.1,30.22,SE,137,4.0,5.0,35,0.00,,,0.00,meteohub,2013-04-28 20:44:00,
2013-04-28 16:49:00,63.0,35.6,30.22,East,92,8.0,8.0,36,0.00,,,0.00,meteohub,2013-04-28 20:49:00,
2013-04-28 16:54:00,62.8,34.7,30.22,SE,140,1.0,11.0,35,0.00,,,0.00,meteohub,2013-04-28 20:54:00,
2013-04-28 16:59:00,62.8,34.7,30.21,ESE,115,2.0,11.0,35,0.00,,,0.00,meteohub,2013-04-28 20:59:00,
2013-04-28 17:04:00,62.8,33.3,30.21,SSE,153,3.0,11.0,33,0.00,,,0.00,meteohub,2013-04-28 21:04:00,
2013-04-28 17:09:00,62.8,33.3,30.21,SSE,159,4.0,9.0,33,0.00,,,0.00,meteohub,2013-04-28 21:09:00,
2013-04-28 17:14:00,62.6,32.4,30.21,SE,134,6.0,9.0,32,0.00,,,0.00,meteohub,2013-04-28 21:14:00,
2013-04-28 17:20:00,62.2,33.4,30.21,SSE,150,3.0,7.0,34,0.00,,,0.00,meteohub,2013-04-28 21:20:00,
2013-04-28 17:25:00,62.1,32.5,30.21,SSE,165,1.0,7.0,33,0.00,,,0.00,meteohub,2013-04-28 21:25:00,
2013-04-28 17:30:00,61.9,33.3,30.21,SE,128,1.0,7.0,34,0.00,,,0.00,meteohub,2013-04-28 21:30:00,
2013-04-28 17:35:00,61.7,33.1,30.21,ESE,117,1.0,7.0,34,0.00,,,0.00,meteohub,2013-04-28 21:35:00,
2013-04-28 17:40:00,61.5,32.2,30.21,SSE,153,3.0,7.0,33,0.00,,,0.00,meteohub,2013-04-28 21:40:00,
2013-04-28 17:45:00,61.3,31.3,30.21,SE,146,4.0,7.0,32,0.00,,,0.00,meteohub,2013-04-28 21:45:00,
2013-04-28 17:50:00,61.2,31.8,30.21,SE,141,3.0,7.0,33,0.00,,,0.00,meteohub,2013-04-28 21:50:00,
2013-04-28 17:55:00,61.0,31.6,30.20,SSE,155,4.0,8.0,33,0.00,,,0.00,meteohub,2013-04-28 21:55:00,
2013-04-28 18:00:00,60.6,32.2,30.21,SE,146,4.0,8.0,34,0.00,,,0.00,meteohub,2013-04-28 22:00:00,
2013-04-28 18:05:00,60.4,32.0,30.21,South,188,3.0,8.0,34,0.00,,,0.00,meteohub,2013-04-28 22:05:00,
2013-04-28 18:10:00,60.3,33.3,30.21,South,177,3.0,7.0,36,0.00,,,0.00,meteohub,2013-04-28 22:10:00,
2013-04-28 18:15:00,60.1,31.6,30.21,SE,142,3.0,6.0,34,0.00,,,0.00,meteohub,2013-04-28 22:15:00,
2013-04-28 18:20:00,59.9,32.9,30.21,South,172,2.0,8.0,36,0.00,,,0.00,meteohub,2013-04-28 22:20:00,
2013-04-28 18:25:00,59.7,32.0,30.21,SE,145,3.0,8.0,35,0.00,,,0.00,meteohub,2013-04-28 22:25:00,
2013-04-28 18:30:00,59.5,32.5,30.21,SSE,150,2.0,8.0,36,0.00,,,0.00,meteohub,2013-04-28 22:30:00,
2013-04-28 18:35:00,59.2,32.9,30.21,SSE,165,3.0,6.0,37,0.00,,,0.00,meteohub,2013-04-28 22:35:00,
2013-04-28 18:40:00,59.0,32.7,30.21,SSE,154,1.0,6.0,37,0.00,,,0.00,meteohub,2013-04-28 22:40:00,
2013-04-28 18:45:00,58.8,33.3,30.21,SSE,155,2.0,7.0,38,0.00,,,0.00,meteohub,2013-04-28 22:45:00,
2013-04-28 18:50:00,58.6,33.1,30.21,SSW,192,2.0,7.0,38,0.00,,,0.00,meteohub,2013-04-28 22:50:00,
2013-04-28 18:55:00,58.5,32.9,30.20,South,172,1.0,5.0,38,0.00,,,0.00,meteohub,2013-04-28 22:55:00,
2013-04-28 19:00:00,58.3,34.0,30.20,SE,135,2.0,5.0,40,0.00,,,0.00,meteohub,2013-04-28 23:00:00,
2013-04-28 19:05:00,58.3,34.0,30.20,SSE,165,2.0,5.0,40,0.00,,,0.00,meteohub,2013-04-28 23:05:00,
2013-04-28 19:10:00,57.9,33.8,30.20,SSE,160,1.0,4.0,40,0.00,,,0.00,meteohub,2013-04-28 23:10:00,
2013-04-28 19:15:00,57.7,33.6,30.20,SSE,167,2.0,4.0,40,0.00,,,0.00,meteohub,2013-04-28 23:15:00,
2013-04-28 19:20:00,57.6,34.7,30.20,SE,136,1.0,4.0,42,0.00,,,0.00,meteohub,2013-04-28 23:20:00,
2013-04-28 19:25:00,57.4,35.1,30.20,South,184,3.0,4.0,43,0.00,,,0.00,meteohub,2013-04-28 23:25:00,
2013-04-28 19:30:00,57.2,34.9,30.20,SSE,164,2.0,3.0,43,0.00,,,0.00,meteohub,2013-04-28 23:30:00,
2013-04-28 19:35:00,57.0,35.2,30.20,NE,56,1.0,3.0,44,0.00,,,0.00,meteohub,2013-04-28 23:35:00,
2013-04-28 19:40:00,56.8,36.3,30.20,SSE,149,1.0,3.0,46,0.00,,,0.00,meteohub,2013-04-28 23:40:00,
2013-04-28 19:45:00,56.7,35.1,30.20,SSE,153,1.0,3.0,44,0.00,,,0.00,meteohub,2013-04-28 23:45:00,
2013-04-28 19:50:00,56.5,34.3,30.20,South,175,2.0,4.0,43,0.00,,,0.00,meteohub,2013-04-28 23:50:00,
2013-04-28 19:56:00,56.3,33.4,30.20,South,176,1.0,5.0,42,0.00,,,0.00,meteohub,2013-04-28 23:56:00,
2013-04-28 20:01:00,55.9,32.5,30.20,South,172,2.0,5.0,41,0.00,,,0.00,meteohub,2013-04-29 00:01:00,
2013-04-28 20:06:00,55.9,32.0,30.20,ESE,103,3.0,5.0,40,0.00,,,0.00,meteohub,2013-04-29 00:06:00,
2013-04-28 20:11:00,55.8,33.1,30.20,SSE,159,0.0,5.0,42,0.00,,,0.00,meteohub,2013-04-29 00:11:00,
2013-04-28 20:16:00,55.6,34.0,30.20,SE,137,0.0,5.0,44,0.00,,,0.00,meteohub,2013-04-29 00:16:00,
2013-04-28 20:21:00,55.2,35.4,30.20,SE,144,1.0,5.0,47,0.00,,,0.00,meteohub,2013-04-29 00:21:00,
2013-04-28 20:26:00,54.9,34.5,30.19,ENE,78,2.0,4.0,46,0.00,,,0.00,meteohub,2013-04-29 00:26:00,
2013-04-28 20:31:00,54.3,37.0,30.19,ENE,78,0.0,2.0,52,0.00,,,0.00,meteohub,2013-04-29 00:31:00,
2013-04-28 20:36:00,54.0,36.7,30.19,SE,144,0.0,3.0,52,0.00,,,0.00,meteohub,2013-04-29 00:36:00,
2013-04-28 20:41:00,53.4,37.6,30.20,ENE,76,1.0,3.0,55,0.00,,,0.00,meteohub,2013-04-29 00:41:00,
2013-04-28 20:46:00,53.2,35.6,30.20,East,81,1.0,4.0,51,0.00,,,0.00,meteohub,2013-04-29 00:46:00,
2013-04-28 20:51:00,53.1,38.7,30.20,South,173,1.0,4.0,58,0.00,,,0.00,meteohub,2013-04-29 00:51:00,
2013-04-28 20:56:00,52.9,37.2,30.20,ESE,123,1.0,4.0,55,0.00,,,0.00,meteohub,2013-04-29 00:56:00,
2013-04-28 21:01:00,52.5,37.2,30.21,SE,146,1.0,5.0,56,0.00,,,0.00,meteohub,2013-04-29 01:01:00,
2013-04-28 21:06:00,52.5,36.3,30.21,SSW,201,1.0,5.0,54,0.00,,,0.00,meteohub,2013-04-29 01:06:00,
2013-04-28 21:11:00,52.5,37.8,30.21,East,88,1.0,5.0,57,0.00,,,0.00,meteohub,2013-04-29 01:11:00,
2013-04-28 21:16:00,52.3,37.0,30.21,ENE,68,1.0,2.0,56,0.00,,,0.00,meteohub,2013-04-29 01:16:00,
2013-04-28 21:21:00,52.3,38.5,30.21,ENE,68,0.0,2.0,59,0.00,,,0.00,meteohub,2013-04-29 01:21:00,
2013-04-28 21:26:00,52.2,37.4,30.22,East,80,1.0,2.0,57,0.00,,,0.00,meteohub,2013-04-29 01:26:00,
2013-04-28 21:31:00,52.0,38.1,30.22,East,80,0.0,2.0,59,0.00,,,0.00,meteohub,2013-04-29 01:31:00,
2013-04-28 21:36:00,52.0,38.5,30.22,East,80,1.0,2.0,60,0.00,,,0.00,meteohub,2013-04-29 01:36:00,
2013-04-28 21:41:00,51.6,38.7,30.22,East,81,0.0,2.0,61,0.00,,,0.00,meteohub,2013-04-29 01:41:00,
2013-04-28 21:46:00,51.6,37.8,30.22,East,80,0.0,2.0,59,0.00,,,0.00,meteohub,2013-04-29 01:46:00,
2013-04-28 21:51:00,51.6,36.9,30.22,East,80,0.0,2.0,57,0.00,,,0.00,meteohub,2013-04-29 01:51:00,
2013-04-28 21:56:00,51.6,36.5,30.22,East,80,0.0,2.0,56,0.00,,,0.00,meteohub,2013-04-29 01:56:00,
2013-04-28 22:01:00,51.6,39.0,30.22,East,86,1.0,2.0,62,0.00,,,0.00,meteohub,2013-04-29 02:01:00,
2013-04-28 22:06:00,51.6,39.4,30.22,East,86,0.0,2.0,63,0.00,,,0.00,meteohub,2013-04-29 02:06:00,
2013-04-28 22:11:00,51.4,39.2,30.22,East,86,1.0,2.0,63,0.00,,,0.00,meteohub,2013-04-29 02:11:00,
2013-04-28 22:16:00,51.3,38.7,30.22,East,86,0.0,2.0,62,0.00,,,0.00,meteohub,2013-04-29 02:16:00,
2013-04-28 22:21:00,51.3,37.4,30.21,ENE,63,1.0,3.0,59,0.00,,,0.00,meteohub,2013-04-29 02:21:00,
2013-04-28 22:27:00,51.3,37.8,30.22,ENE,62,1.0,3.0,60,0.00,,,0.00,meteohub,2013-04-29 02:27:00,
2013-04-28 22:32:00,51.4,37.9,30.22,ENE,62,0.0,3.0,60,0.00,,,0.00,meteohub,2013-04-29 02:32:00,
2013-04-28 22:37:00,51.4,36.7,30.22,ENE,57,1.0,2.0,57,0.00,,,0.00,meteohub,2013-04-29 02:37:00,
2013-04-28 22:42:00,51.6,37.4,30.21,SE,129,1.0,3.0,58,0.00,,,0.00,meteohub,2013-04-29 02:42:00,
2013-04-28 22:47:00,51.8,36.7,30.21,East,88,0.0,4.0,56,0.00,,,0.00,meteohub,2013-04-29 02:47:00,
2013-04-28 22:52:00,51.8,37.6,30.21,SE,128,2.0,4.0,58,0.00,,,0.00,meteohub,2013-04-29 02:52:00,
2013-04-28 22:57:00,52.0,36.3,30.21,SSE,160,0.0,4.0,55,0.00,,,0.00,meteohub,2013-04-29 02:57:00,
2013-04-28 23:02:00,52.0,36.3,30.21,SE,128,1.0,3.0,55,0.00,,,0.00,meteohub,2013-04-29 03:02:00,
2013-04-28 23:07:00,52.2,37.4,30.21,SE,128,0.0,3.0,57,0.00,,,0.00,meteohub,2013-04-29 03:07:00,
2013-04-28 23:12:00,52.2,36.9,30.21,ESE,121,1.0,2.0,56,0.00,,,0.00,meteohub,2013-04-29 03:12:00,
2013-04-28 23:17:00,52.2,37.4,30.21,SE,130,1.0,2.0,57,0.00,,,0.00,meteohub,2013-04-29 03:17:00,
2013-04-28 23:22:00,52.3,37.6,30.21,SE,128,0.0,3.0,57,0.00,,,0.00,meteohub,2013-04-29 03:22:00,
2013-04-28 23:27:00,52.3,37.6,30.21,SE,126,1.0,5.0,57,0.00,,,0.00,meteohub,2013-04-29 03:27:00,
2013-04-28 23:32:00,52.3,37.9,30.21,SE,126,0.0,5.0,58,0.00,,,0.00,meteohub,2013-04-29 03:32:00,
2013-04-28 23:37:00,52.3,37.9,30.22,South,184,1.0,5.0,58,0.00,,,0.00,meteohub,2013-04-29 03:37:00,
2013-04-28 23:42:00,52.3,38.5,30.22,ESE,123,1.0,3.0,59,0.00,,,0.00,meteohub,2013-04-29 03:42:00,
2013-04-28 23:47:00,52.5,38.1,30.22,ESE,123,1.0,3.0,58,0.00,,,0.00,meteohub,2013-04-29 03:47:00,
2013-04-28 23:52:00,52.5,38.7,30.21,ENE,76,1.0,3.0,59,0.00,,,0.00,meteohub,2013-04-29 03:52:00,
2013-04-28 23:57:00,52.5,39.0,30.21,East,88,1.0,2.0,60,0.00,,,0.00,meteohub,2013-04-29 03:57:00,